Flag for Canada Weather past 2 weeks in North Bay, Ontario, Canada

Now
-13 °F

Clear.


Feels Like: -25 °F
Forecast: -14 / 14 °F
Wind: 5 mph from Northwest

Location: North Bay

Current Time: Jan 28, 2015 at 4:21:55 AM

Latest Report: Jan 28, 2015 at 4:00 AM


Visibility: 9 mi

Pressure: 30.25 "Hg

Humidity: 83%

Dew point: -17 °F

Location of North BayLocation

Historic Weather in North Bay — Graph

°F

North Bay temperature yesterday

Maximum temperature yesterday: 14 °F (at 3:00 PM)
Minimum temperature yesterday: -6 °F (at 6:00 AM)
Average temperature yesterday: 3 °F

Past Weeks' High & Low Weather Summary

 TemperatureHumidityPressure
High34 °F (Jan 18, 1:00 PM)100% (Jan 15, 4:58 AM)30.84 "Hg (Jan 15, 4:58 AM)
Low-26 °F (Jan 13, 7:00 AM)52% (Jan 27, 3:00 PM)29.35 "Hg (Jan 24, 3:03 PM)
Average8 °F85%30.02 "Hg
* Reported Jan 13 3:00 AM — Jan 28 3:00 AM, North Bay, Weather by CustomWeather, © 2014

Note: Actual official high and low records may vary slightly from our data, if they occured in-between our weather recording intervals... More about our weather records

Advertising

North Bay weather history for previous 24 hours

 ConditionsComfort  
Time TempWeatherWind HumidityBarometerVisibility
3:00 AM
Jan 28
-13 °FClear.5 mph83%30.25 "Hg9 mi
2:00 AM-8 °FClear.3 mph92%30.24 "Hg9 mi
1:00 AM-6 °FClear.No wind92%30.22 "Hg9 mi
12:00 AM-2 °FClear.3 mph84%30.24 "Hg9 mi
11:00 PM
Jan 27
0 °FClear.5 mph84%30.24 "Hg9 mi
10:00 PM1 °FClear.2 mph85%30.24 "Hg15 mi
9:00 PM3 °FClear.5 mph78%30.25 "Hg15 mi
8:00 PM5 °FClear.7 mph72%30.24 "Hg15 mi
7:00 PM5 °FClear.8 mph78%30.24 "Hg15 mi
6:00 PM7 °FClear.7 mph78%30.24 "Hg15 mi
5:00 PM12 °FPassing clouds.7 mph67%30.22 "Hg30 mi
4:00 PM14 °FPassing clouds.7 mph62%30.21 "Hg30 mi
3:00 PM14 °FPassing clouds.8 mph52%30.20 "Hg30 mi
2:00 PM12 °FPassing clouds.7 mph57%30.20 "Hg30 mi
1:00 PM10 °FPassing clouds.7 mph56%30.22 "Hg30 mi
12:00 PM7 °FPassing clouds.8 mph56%30.23 "Hg30 mi
11:00 AM5 °FPassing clouds.7 mph60%30.24 "Hg15 mi
10:00 AM0 °FPassing clouds.9 mph65%30.24 "Hg15 mi
9:00 AM-4 °FPassing clouds.5 mph71%30.24 "Hg15 mi
8:00 AM-6 °FPassing clouds.9 mph77%30.22 "Hg15 mi
7:00 AM-6 °FClear.7 mph77%30.19 "Hg15 mi
6:00 AM-6 °FClear.8 mph77%30.19 "Hg9 mi
5:00 AM-2 °FClear.7 mph71%30.16 "Hg9 mi
4:00 AM-2 °FClear.6 mph77%30.15 "Hg9 mi
Weather by CustomWeather, © 2014

See weather overviewHow to use our weather pages